sat.trackr.live / text

‹ back to catalog

STARLINK-5261

NORAD 55276 · 2023-010H

PAYLOAD ACTIVE UNKNOWN

§ Identity

Operator
Country
US
Launch date
2023-01-19
Launch site
AFWTR
Launch vehicle
Mass (kg)
RCS (m²)

Purposes: comms

External: N2YO · Heavens-Above · Gunter

§ Orbital elements

Epoch: 2026-05-24T20:15:49.262688Z

Period
96.11 min
Inclination
69.9995°
Eccentricity
0.0003829
Mean motion
14.98328074 rev/d
Perigee alt
569.4 km
Apogee alt
574.7 km
Semi-major
6,950.2 km
B*
-1.7797e-4
RAAN
192.5545°
Arg perigee
266.4545°
Mean anomaly
93.6176°
Rev number
18,467

§ Raw data

STARLINK-52611 55276U 23010H   26144.84432017 -.00002216  00000+0 -17797-3 0  99932 55276  69.9995 192.5545 0003829 266.4545  93.6176 14.98328074184673

JSON: /api/v1/satellites/55276 · /tle

For live sub-satellite position, see the globe view (requires WebGL).

§ Visibility from observer

Set your observer location to see the next 7 days of passes ≥ 10°. The values pass through the URL so the page stays shareable.

No JS? Fill the form by hand. The geolocation button needs JavaScript.